When you browse on this site, cookies collect data to enhance your experience and personalize the content and advertising you see.
Visit our Privacy Policy to learn more. By continuing to use the site, you agree to this use of cookies and data.
  • In Portugal
  • List of Countries
  • For 7 days
  • Water Temperature
  • Satellite Maps
  • Weather Map
  • Weather Widgets
  • user-avatar
    Login

    Hourly Weather Holmech

    Today, 24 April, Wednesday

    Time Temperature Precipitation Wind Pressure Humidity
    00:00 +11°C° 0 mm 0 mps 760 mmHg 47%
    01:00 +10°C° 0 mm 0 mps 760 mmHg 48%
    02:00 +10°C° 0 mm 0 mps 760 mmHg 50%
    03:00 +10°C° 0 mm 1 mps 760 mmHg 52%
    04:00 +10°C° 0 mm 1 mps 760 mmHg 54%
    05:00 +10°C° 0 mm 1 mps 760 mmHg 56%
    06:00 +12°C° 0 mm 1 mps 760 mmHg 52%
    07:00 +14°C° 0 mm 1 mps 760 mmHg 48%
    08:00 +16°C° 0 mm 1 mps 760 mmHg 44%
    09:00 +18°C° 0 mm 2 mps 760 mmHg 39%
    10:00 +19°C° 0 mm 2 mps 760 mmHg 34%
    11:00 +21°C° 0 mm 2 mps 760 mmHg 29%
    12:00 +21°C° 0 mm 3 mps 760 mmHg 28%
    13:00 +22°C° 0 mm 3 mps 760 mmHg 28%
    14:00 +22°C° 0 mm 3 mps 759 mmHg 27%
    15:00 +22°C° 0 mm 3 mps 759 mmHg 29%
    16:00 +21°C° 0 mm 3 mps 759 mmHg 30%
    17:00 +21°C° 0 mm 3 mps 759 mmHg 32%
    18:00 +19°C° 0 mm 2 mps 758 mmHg 37%
    19:00 +17°C° 0 mm 2 mps 758 mmHg 42%
    20:00 +15°C° 0 mm 2 mps 758 mmHg 47%
    21:00 +14°C° 0 mm 2 mps 758 mmHg 49%
    22:00 +14°C° 0 mm 1 mps 759 mmHg 50%
    23:00 +13°C° 0 mm 1 mps 759 mmHg 51%

    Tomorrow, 25 April, Thursday

    Time Temperature Precipitation Wind Pressure Humidity
    00:00 +13°C° 0 mm 1 mps 759 mmHg 52%
    01:00 +12°C° 0 mm 1 mps 759 mmHg 53%
    02:00 +12°C° 0 mm 1 mps 759 mmHg 53%
    03:00 +11°C° 0 mm 1 mps 759 mmHg 55%
    04:00 +11°C° 0 mm 1 mps 759 mmHg 56%
    05:00 +11°C° 0 mm 1 mps 759 mmHg 57%
    06:00 +13°C° 0 mm 1 mps 759 mmHg 54%
    07:00 +15°C° 0 mm 2 mps 759 mmHg 50%
    08:00 +17°C° 0 mm 2 mps 759 mmHg 46%
    09:00 +18°C° 0 mm 2 mps 759 mmHg 41%
    10:00 +20°C° 0 mm 3 mps 759 mmHg 36%
    11:00 +21°C° 0 mm 4 mps 759 mmHg 31%
    12:00 +22°C° 0 mm 4 mps 758 mmHg 31%
    13:00 +22°C° 0 mm 4 mps 758 mmHg 30%
    14:00 +22°C° 0 mm 4 mps 758 mmHg 30%
    15:00 +22°C° 0 mm 4 mps 757 mmHg 31%
    16:00 +22°C° 0 mm 4 mps 757 mmHg 33%
    17:00 +21°C° 0 mm 4 mps 756 mmHg 35%
    18:00 +19°C° 0 mm 3 mps 756 mmHg 41%
    19:00 +17°C° 0 mm 3 mps 756 mmHg 47%
    20:00 +15°C° 0 mm 2 mps 756 mmHg 53%
    21:00 +15°C° 0 mm 2 mps 756 mmHg 55%
    22:00 +14°C° 0 mm 2 mps 756 mmHg 57%
    23:00 +13°C° 0 mm 2 mps 757 mmHg 59%

    Day after tomorrow, 26 April, Friday

    Time Temperature Precipitation Wind Pressure Humidity
    00:00 +13°C° 0 mm 2 mps 756 mmHg 61%
    01:00 +13°C° 0 mm 2 mps 756 mmHg 63%
    02:00 +12°C° 0 mm 2 mps 756 mmHg 64%
    03:00 +12°C° 0 mm 2 mps 756 mmHg 66%
    04:00 +10°C° 0 mm 2 mps 756 mmHg 67%
    05:00 +10°C° 0 mm 2 mps 756 mmHg 69%
    06:00 +13°C° 0 mm 2 mps 756 mmHg 62%
    07:00 +14°C° 0 mm 3 mps 756 mmHg 56%
    08:00 +17°C° 0 mm 3 mps 755 mmHg 50%
    09:00 +19°C° 0 mm 4 mps 755 mmHg 46%
    10:00 +20°C° 0 mm 5 mps 755 mmHg 42%
    11:00 +22°C° 0 mm 5 mps 755 mmHg 38%
    12:00 +22°C° 0 mm 5 mps 754 mmHg 37%
    13:00 +22°C° 0 mm 6 mps 754 mmHg 36%
    14:00 +23°C° 0 mm 6 mps 754 mmHg 35%
    15:00 +22°C° 0 mm 5 mps 753 mmHg 35%
    16:00 +22°C° 0 mm 5 mps 753 mmHg 35%
    17:00 +21°C° 0 mm 5 mps 752 mmHg 36%
    18:00 +19°C° 0 mm 4 mps 752 mmHg 40%
    19:00 +17°C° 0 mm 3 mps 752 mmHg 44%
    20:00 +14°C° 0 mm 3 mps 752 mmHg 49%
    21:00 +14°C° 0 mm 3 mps 752 mmHg 50%
    22:00 +13°C° 0 mm 3 mps 752 mmHg 52%
    23:00 +12°C° 0 mm 3 mps 752 mmHg 54%

    27 April, Saturday

    Time Temperature Precipitation Wind Pressure Humidity
    00:00 +12°C° 0 mm 3 mps 751 mmHg 55%
    01:00 +12°C° 0 mm 3 mps 751 mmHg 57%
    02:00 +12°C° 0 mm 3 mps 751 mmHg 59%
    03:00 +11°C° 0 mm 3 mps 751 mmHg 62%
    04:00 +11°C° 0 mm 3 mps 750 mmHg 65%
    05:00 +11°C° 0 mm 4 mps 750 mmHg 68%
    06:00 +12°C° 0 mm 4 mps 750 mmHg 65%
    07:00 +14°C° 0 mm 4 mps 749 mmHg 62%
    08:00 +15°C° 0 mm 5 mps 749 mmHg 58%
    09:00 +17°C° 0 mm 5 mps 749 mmHg 53%
    10:00 +20°C° 0 mm 6 mps 749 mmHg 48%
    11:00 +21°C° 0 mm 6 mps 749 mmHg 43%
    12:00 +22°C° 0 mm 6 mps 748 mmHg 42%
    13:00 +23°C° 0 mm 6 mps 748 mmHg 41%
    14:00 +23°C° 0 mm 6 mps 747 mmHg 40%
    15:00 +23°C° 0 mm 5 mps 747 mmHg 43%
    16:00 +23°C° 0 mm 5 mps 747 mmHg 47%
    17:00 +23°C° 0 mm 4 mps 746 mmHg 50%
    18:00 +21°C° 0.1 mm 4 mps 746 mmHg 57%
    19:00 +19°C° 0.1 mm 3 mps 746 mmHg 65%
    20:00 +17°C° 0.1 mm 3 mps 746 mmHg 73%
    21:00 +17°C° 0 mm 3 mps 746 mmHg 75%
    22:00 +17°C° 0 mm 3 mps 746 mmHg 77%
    23:00 +16°C° 0 mm 3 mps 746 mmHg 80%

    28 April, Sunday

    Time Temperature Precipitation Wind Pressure Humidity
    00:00 +16°C° 0.9 mm 2 mps 746 mmHg 85%
    01:00 +15°C° 0.9 mm 2 mps 746 mmHg 90%
    02:00 +15°C° 0.9 mm 2 mps 746 mmHg 94%
    03:00 +15°C° 0.3 mm 2 mps 746 mmHg 95%
    04:00 +15°C° 0.3 mm 2 mps 746 mmHg 95%
    05:00 +15°C° 0.3 mm 2 mps 746 mmHg 95%
    06:00 +16°C° 0.1 mm 2 mps 746 mmHg 90%
    07:00 +17°C° 0.1 mm 2 mps 746 mmHg 85%
    08:00 +18°C° 0.1 mm 2 mps 747 mmHg 80%
    09:00 +19°C° 0.7 mm 2 mps 747 mmHg 76%
    10:00 +20°C° 0.7 mm 2 mps 747 mmHg 71%
    11:00 +21°C° 0.7 mm 2 mps 747 mmHg 67%
    12:00 +23°C° 0.9 mm 2 mps 747 mmHg 63%
    13:00 +24°C° 0.9 mm 2 mps 747 mmHg 60%
    14:00 +24°C° 0.9 mm 2 mps 747 mmHg 56%
    15:00 +24°C° 0.5 mm 2 mps 747 mmHg 58%
    16:00 +23°C° 0.5 mm 2 mps 747 mmHg 61%
    17:00 +23°C° 0.5 mm 1 mps 747 mmHg 63%
    18:00 +21°C° 0.6 mm 2 mps 747 mmHg 70%
    19:00 +19°C° 0.6 mm 2 mps 748 mmHg 76%
    20:00 +17°C° 0.6 mm 3 mps 748 mmHg 83%
    21:00 +17°C° 0 mm 4 mps 748 mmHg 85%
    22:00 +15°C° 0 mm 4 mps 748 mmHg 87%
    23:00 +14°C° 0 mm 5 mps 749 mmHg 90%

    29 April, Monday

    Time Temperature Precipitation Wind Pressure Humidity
    00:00 +14°C° 0 mm 5 mps 749 mmHg 90%
    01:00 +13°C° 0 mm 5 mps 749 mmHg 91%
    02:00 +12°C° 0 mm 5 mps 749 mmHg 92%
    03:00 +12°C° 0 mm 5 mps 749 mmHg 91%
    04:00 +12°C° 0 mm 5 mps 750 mmHg 90%
    05:00 +12°C° 0 mm 5 mps 750 mmHg 89%
    06:00 +12°C° 0 mm 5 mps 750 mmHg 88%
    07:00 +11°C° 0 mm 6 mps 750 mmHg 86%
    08:00 +11°C° 0 mm 6 mps 751 mmHg 84%
    09:00 +11°C° 0 mm 6 mps 751 mmHg 81%
    10:00 +13°C° 0 mm 6 mps 751 mmHg 79%
    11:00 +13°C° 0 mm 6 mps 751 mmHg 76%
    12:00 +14°C° 0 mm 6 mps 751 mmHg 74%
    13:00 +14°C° 0 mm 6 mps 751 mmHg 72%
    14:00 +14°C° 0 mm 6 mps 752 mmHg 70%
    15:00 +14°C° 0 mm 5 mps 752 mmHg 71%
    16:00 +14°C° 0 mm 5 mps 752 mmHg 72%
    17:00 +13°C° 0 mm 4 mps 752 mmHg 73%
    18:00 +13°C° 0 mm 4 mps 752 mmHg 74%
    19:00 +13°C° 0 mm 4 mps 752 mmHg 74%
    20:00 +12°C° 0 mm 4 mps 752 mmHg 75%
    21:00 +12°C° 0 mm 4 mps 753 mmHg 74%
    22:00 +12°C° 0 mm 5 mps 753 mmHg 74%
    23:00 +12°C° 0 mm 5 mps 753 mmHg 73%
    Show more